Powrót do katalogu

STARLINK-33734

AktywnyŁącznośćVLEO
NORAD 63367·PAYLOAD·🇺🇸 United States

Wystrzelony Mar 26, 2025 z Vandenberg Space Force Base

Loading…

Następne Przeloty (najbliższe 24 godziny)

TLE

ŚwieżeSource: CelesTrak SupGP

Epoka: Sep 14, 2026, 20:43 UTC

1 63367C 25063E   26257.86368056  .00051466  00000+0  15211-2 0  2575
2 63367  53.1567 261.7665 0001211  83.5762 146.3977 15.34354119    17

Śledź STARLINK-33734 w czasie rzeczywistym z AllMySat

Download on the App Store